sat.trackr.live / text

‹ back to catalog

STARLINK-30521

NORAD 57966 · 2023-151C

PAYLOAD ACTIVE UNKNOWN

§ Identity

Operator
Country
US
Launch date
2023-09-30
Launch site
AFETR
Launch vehicle
Mass (kg)
RCS (m²)

Purposes: comms

External: N2YO · Heavens-Above · Gunter

§ Orbital elements

Epoch: 2026-05-25T00:37:40.743264Z

Period
94.27 min
Inclination
43.0022°
Eccentricity
0.0001376
Mean motion
15.27581193 rev/d
Perigee alt
482.1 km
Apogee alt
484.0 km
Semi-major
6,861.2 km
B*
2.3105e-5
RAAN
264.6818°
Arg perigee
264.9464°
Mean anomaly
95.1231°
Rev number
14,744

§ Raw data

STARLINK-305211 57966U 23151C   26145.02616601  .00000374  00000+0  23105-4 0  99932 57966  43.0022 264.6818 0001376 264.9464  95.1231 15.27581193147446

JSON: /api/v1/satellites/57966 · /tle

For live sub-satellite position, see the globe view (requires WebGL).

§ Visibility from observer

Set your observer location to see the next 7 days of passes ≥ 10°. The values pass through the URL so the page stays shareable.

No JS? Fill the form by hand. The geolocation button needs JavaScript.